Location: Eitze
(52.9840°N, 9.6894°E)
Time: 06:37:23
(UTC+00:00)

PSLV R/B - Pass Details

Date: 19 May 2025
Orbit: 402 x 431 km, 97.7° (Epoch: 14 June)

Event Time Altitude Azimuth Distance (km) Brightness Sun altitude
Exits shadow 20:52:23 12° 180° (S) 1,387 5.4 -10.6°
Maximum altitude 20:55:16 55° 258° (WSW) 514 3.8 -10.8°
Drops below altitude 10° 20:58:29 10° 338° (NNW) 1,531 7.6 -11.1°
Sets 21:00:33 0° 343° (NNW) 2,410 8.8 -11.2°
